• In Portugal
  • List of Countries
  • For 7 days
  • Water Temperature
  • Satellite Maps
  • Weather Map
  • Weather Widgets
  • user-avatar
    Login

    Hourly Weather Newcastle

    Today, 17 August, Friday

    Time Temperature Precipitation Wind Pressure Humidity
    00:00 +9°C° 0 mm 2 mps 760 mmHg 72%
    01:00 +9°C° 0 mm 3 mps 760 mmHg 72%
    02:00 +8°C° 0 mm 3 mps 760 mmHg 73%
    03:00 +8°C° 0 mm 3 mps 760 mmHg 73%
    04:00 +7°C° 0 mm 3 mps 760 mmHg 73%
    05:00 +7°C° 0 mm 3 mps 760 mmHg 73%
    06:00 +7°C° 0 mm 3 mps 760 mmHg 74%
    07:00 +7°C° 0 mm 3 mps 760 mmHg 75%
    08:00 +9°C° 0 mm 3 mps 760 mmHg 64%
    09:00 +12°C° 0 mm 3 mps 760 mmHg 54%
    10:00 +16°C° 0 mm 3 mps 760 mmHg 43%
    11:00 +17°C° 0 mm 3 mps 760 mmHg 40%
    12:00 +18°C° 0 mm 3 mps 759 mmHg 36%
    13:00 +19°C° 0 mm 2 mps 759 mmHg 32%
    14:00 +19°C° 0 mm 2 mps 758 mmHg 33%
    15:00 +19°C° 0 mm 2 mps 758 mmHg 35%
    16:00 +19°C° 0 mm 2 mps 758 mmHg 36%
    17:00 +17°C° 0 mm 2 mps 759 mmHg 43%
    18:00 +15°C° 0 mm 2 mps 759 mmHg 49%
    19:00 +12°C° 0 mm 2 mps 759 mmHg 56%
    20:00 +11°C° 0 mm 3 mps 760 mmHg 56%
    21:00 +10°C° 0 mm 3 mps 760 mmHg 55%
    22:00 +10°C° 0 mm 4 mps 761 mmHg 55%
    23:00 +8°C° 0 mm 4 mps 761 mmHg 59%

    Tomorrow, 18 August, Saturday

    Time Temperature Precipitation Wind Pressure Humidity
    00:00 +8°C° 0 mm 3 mps 761 mmHg 63%
    01:00 +7°C° 0 mm 3 mps 760 mmHg 67%
    02:00 +7°C° 0 mm 3 mps 760 mmHg 67%
    03:00 +6°C° 0 mm 4 mps 760 mmHg 67%
    04:00 +6°C° 0 mm 4 mps 760 mmHg 67%
    05:00 +6°C° 0 mm 4 mps 760 mmHg 67%
    06:00 +6°C° 0 mm 4 mps 760 mmHg 66%
    07:00 +6°C° 0 mm 5 mps 760 mmHg 65%
    08:00 +9°C° 0 mm 5 mps 760 mmHg 57%
    09:00 +13°C° 0 mm 5 mps 759 mmHg 48%
    10:00 +16°C° 0 mm 6 mps 759 mmHg 39%
    11:00 +19°C° 0 mm 6 mps 758 mmHg 36%
    12:00 +20°C° 0 mm 6 mps 757 mmHg 33%
    13:00 +21°C° 0 mm 6 mps 756 mmHg 30%
    14:00 +21°C° 0 mm 6 mps 755 mmHg 32%
    15:00 +20°C° 0 mm 6 mps 755 mmHg 34%
    16:00 +20°C° 0 mm 5 mps 755 mmHg 36%
    17:00 +17°C° 0.1 mm 6 mps 756 mmHg 45%
    18:00 +15°C° 0.1 mm 7 mps 756 mmHg 53%
    19:00 +12°C° 0.1 mm 8 mps 757 mmHg 61%
    20:00 +11°C° 0 mm 8 mps 758 mmHg 62%
    21:00 +10°C° 0 mm 7 mps 758 mmHg 62%
    22:00 +9°C° 0 mm 7 mps 759 mmHg 63%
    23:00 +8°C° 0 mm 7 mps 759 mmHg 63%

    Day after tomorrow, 19 August, Sunday

    Time Temperature Precipitation Wind Pressure Humidity
    00:00 +8°C° 0 mm 7 mps 759 mmHg 63%
    01:00 +8°C° 0 mm 7 mps 758 mmHg 62%
    02:00 +6°C° 0 mm 8 mps 758 mmHg 61%
    03:00 +6°C° 0 mm 8 mps 758 mmHg 60%
    04:00 +6°C° 0 mm 8 mps 758 mmHg 59%
    05:00 +6°C° 0 mm 8 mps 758 mmHg 58%
    06:00 +5°C° 0 mm 8 mps 758 mmHg 56%
    07:00 +5°C° 0 mm 8 mps 758 mmHg 55%
    08:00 +7°C° 0 mm 8 mps 759 mmHg 50%
    09:00 +10°C° 0 mm 8 mps 759 mmHg 45%
    10:00 +11°C° 0 mm 8 mps 759 mmHg 39%
    11:00 +12°C° 0 mm 8 mps 758 mmHg 37%
    12:00 +13°C° 0 mm 8 mps 758 mmHg 34%
    13:00 +15°C° 0 mm 8 mps 757 mmHg 31%
    14:00 +13°C° 0 mm 9 mps 757 mmHg 32%
    15:00 +13°C° 0 mm 9 mps 757 mmHg 32%
    16:00 +13°C° 0 mm 9 mps 757 mmHg 32%
    17:00 +11°C° 0.1 mm 9 mps 758 mmHg 36%
    18:00 +10°C° 0.1 mm 9 mps 759 mmHg 40%
    19:00 +9°C° 0.1 mm 8 mps 759 mmHg 44%
    20:00 +7°C° 0 mm 8 mps 760 mmHg 46%
    21:00 +7°C° 0 mm 9 mps 760 mmHg 49%
    22:00 +6°C° 0 mm 9 mps 760 mmHg 51%
    23:00 +6°C° 0.2 mm 9 mps 760 mmHg 53%

    20 August, Monday

    Time Temperature Precipitation Wind Pressure Humidity
    00:00 +6°C° 0.2 mm 9 mps 760 mmHg 54%
    01:00 +6°C° 0.2 mm 9 mps 760 mmHg 56%
    02:00 +6°C° 0.4 mm 9 mps 761 mmHg 57%
    03:00 +6°C° 0.4 mm 9 mps 761 mmHg 59%
    04:00 +6°C° 0.4 mm 9 mps 761 mmHg 60%
    05:00 +6°C° 0.3 mm 9 mps 762 mmHg 61%
    06:00 +5°C° 0.3 mm 9 mps 762 mmHg 62%
    07:00 +5°C° 0.3 mm 8 mps 763 mmHg 63%
    08:00 +7°C° 0.1 mm 8 mps 763 mmHg 56%
    09:00 +10°C° 0.1 mm 9 mps 763 mmHg 50%
    10:00 +11°C° 0.1 mm 9 mps 763 mmHg 43%
    11:00 +12°C° 0.1 mm 8 mps 763 mmHg 40%
    12:00 +13°C° 0.1 mm 8 mps 763 mmHg 37%
    13:00 +15°C° 0.1 mm 8 mps 762 mmHg 34%
    14:00 +15°C° 0.1 mm 8 mps 762 mmHg 35%
    15:00 +15°C° 0.1 mm 7 mps 762 mmHg 36%
    16:00 +15°C° 0.1 mm 7 mps 762 mmHg 37%
    17:00 +13°C° 0 mm 6 mps 762 mmHg 45%
    18:00 +10°C° 0 mm 6 mps 763 mmHg 53%
    19:00 +8°C° 0 mm 5 mps 764 mmHg 62%
    20:00 +7°C° 0 mm 5 mps 764 mmHg 65%
    21:00 +7°C° 0 mm 4 mps 764 mmHg 68%
    22:00 +6°C° 0 mm 4 mps 764 mmHg 72%
    23:00 +6°C° 0 mm 4 mps 764 mmHg 73%

    21 August, Tuesday

    Time Temperature Precipitation Wind Pressure Humidity
    00:00 +5°C° 0 mm 4 mps 764 mmHg 74%
    01:00 +5°C° 0 mm 3 mps 764 mmHg 75%
    02:00 +4°C° 0 mm 3 mps 764 mmHg 75%
    03:00 +4°C° 0 mm 3 mps 763 mmHg 75%
    04:00 +4°C° 0 mm 3 mps 763 mmHg 74%
    05:00 +3°C° 0 mm 3 mps 763 mmHg 73%
    06:00 +3°C° 0 mm 3 mps 764 mmHg 71%
    07:00 +3°C° 0 mm 3 mps 764 mmHg 70%
    08:00 +7°C° 0 mm 3 mps 764 mmHg 60%
    09:00 +10°C° 0 mm 3 mps 764 mmHg 50%
    10:00 +13°C° 0 mm 3 mps 763 mmHg 41%
    11:00 +14°C° 0 mm 3 mps 763 mmHg 36%
    12:00 +17°C° 0 mm 2 mps 762 mmHg 32%
    13:00 +18°C° 0 mm 2 mps 761 mmHg 28%
    14:00 +18°C° 0 mm 2 mps 761 mmHg 30%
    15:00 +18°C° 0 mm 2 mps 761 mmHg 31%
    16:00 +18°C° 0 mm 2 mps 761 mmHg 33%
    17:00 +16°C° 0 mm 2 mps 762 mmHg 40%
    18:00 +14°C° 0 mm 2 mps 762 mmHg 46%
    19:00 +12°C° 0 mm 2 mps 763 mmHg 53%
    20:00 +10°C° 0 mm 2 mps 763 mmHg 55%
    21:00 +9°C° 0 mm 2 mps 764 mmHg 58%
    22:00 +9°C° 0 mm 1 mps 764 mmHg 61%
    23:00 +9°C° 0 mm 1 mps 764 mmHg 64%

    22 August, Wednesday

    Time Temperature Precipitation Wind Pressure Humidity
    00:00 +8°C° 0 mm 1 mps 764 mmHg 67%
    01:00 +6°C° 0 mm 2 mps 764 mmHg 71%
    02:00 +6°C° 0 mm 2 mps 764 mmHg 72%
    03:00 +6°C° 0 mm 2 mps 764 mmHg 73%
    04:00 +5°C° 0 mm 2 mps 764 mmHg 74%
    05:00 +5°C° 0 mm 2 mps 765 mmHg 73%
    06:00 +4°C° 0 mm 3 mps 765 mmHg 71%
    07:00 +4°C° 0 mm 3 mps 766 mmHg 70%
    08:00 +9°C° 0 mm 2 mps 766 mmHg 60%
    09:00 +13°C° 0 mm 2 mps 766 mmHg 50%
    10:00 +16°C° 0 mm 2 mps 765 mmHg 41%
    11:00 +17°C° 0 mm 2 mps 765 mmHg 38%
    12:00 +20°C° 0 mm 1 mps 764 mmHg 35%
    13:00 +21°C° 0 mm 1 mps 764 mmHg 32%
    14:00 +20°C° 0 mm 2 mps 763 mmHg 34%
    15:00 +19°C° 0 mm 2 mps 763 mmHg 36%
    16:00 +19°C° 0 mm 3 mps 763 mmHg 38%
    17:00 +17°C° 0 mm 3 mps 764 mmHg 47%
    18:00 +14°C° 0 mm 4 mps 764 mmHg 55%
    19:00 +11°C° 0 mm 4 mps 765 mmHg 64%
    20:00 +11°C° 0 mm 4 mps 765 mmHg 67%
    21:00 +10°C° 0 mm 4 mps 765 mmHg 70%
    22:00 +8°C° 0 mm 4 mps 765 mmHg 73%
    23:00 +8°C° 0 mm 4 mps 765 mmHg 74%
    Show more